Zurück zum Katalog

CMS-01

AktivKommunikationGEO
NORAD 47256·PAYLOAD·🇮🇳 India

Gestartet Dec 17, 2020 von Satish Dhawan Space Centre

Loading…

TLE

AktuellSource: Space-Track

Epoche: Sep 14, 2026, 14:11 UTC

1 47256U 20099A   26257.59156774 -.00000173  00000-0  00000-0 0  9992
2 47256   0.0432  96.9575 0004817 157.5450  35.0279  1.00272663 21098

Verfolge CMS-01 in Echtzeit mit AllMySat

Download on the App Store